Tracking 29892 objects as of 21-Nov-2024
HD Live streaming from Space Station
objects crossing your sky now

STARLINK-6276

Track STARLINK-6276 now!
10-day predictions
STARLINK-6276 is classified as:


NORAD ID: 57355
Int'l Code: 2023-099AD
Perigee: 565.4 km
Apogee: 567.0 km
Inclination: 43.0 °
Period: 95.8 minutes
Semi major axis: 6937 km
RCS: Unknown
Launch date: July 16, 2023
Source: United States (US)
Launch site: AIR FORCE EASTERN TEST RANGE (AFETR)
Your satellite tracking list
Your tracking list is empty




NASA's NSSDC Master Catalog

Two Line Element Set (TLE):
1 57355U 23099AD  24325.91749079  .00000917  00000-0  82921-4 0  9993
2 57355  43.0043 290.7470 0001107 265.1699  94.9017 15.02542521 75736
Source of the keplerian elements: AFSPC